Regional Weather Roundup
Issued by NWS

Home | Current Version | Previous Version | Graphics & Text | Print | Product List | Glossary On
Versions: 1 2 3 4 5 6 7 8 9 10 11 12 13 14 15 16 17 18 19 20 21 22 23 24 25 26 27 28 29 30 31 32 33 34 35 36 37 38 39 40 41 42 43 44 45 46 47 48 49 50
000
ASUS43 KOAX 230302
RWRNE

WEATHER ROUNDUP FOR NEBRASKA
NATIONAL WEATHER SERVICE OMAHA NE
1000 PM CDT TUE JUL 22 2014

NOTES: SATELLITE DATA IS BEING USED TO AUGMENT CLOUD COVER ABOVE
       12000 FEET.
       "FAIR" INDICATES FEW OR NO CLOUDS BELOW 12,000 FEET WITH NO
       SIGNIFICANT WEATHER AND/OR OBSTRUCTIONS TO VISIBILITY.

  * THESE STATIONS DO NOT REPORT WEATHER SUCH AS RAIN...SNOW OR FOG.

NEZ001>004-019>022-054>056-230400-
NEBRASKA PANHANDLE

CITY           SKY/WX    TMP DP  RH WIND       PRES   REMARKS
SCOTTSBLUFF    PTCLDY    82  58  43 SE16      30.19S
ALLIANCE       CLEAR     79  56  45 SE12      30.22R
CHADRON        CLEAR     81  61  50 E15G21    30.14S
KIMBALL        MOCLDY    79  56  45 SE12      30.26S
SIDNEY         MOCLDY    79  58  48 SE9       30.26S
$$

NEZ057>060-069>072-079>082-230400-
SOUTHWEST NEBRASKA

CITY           SKY/WX    TMP DP  RH WIND       PRES   REMARKS
NORTH PLATTE   CLEAR     77  64  64 E10       30.21R
IMPERIAL       CLEAR     78  62  57 E9        30.21R
LEXINGTON      CLEAR     75  67  75 E7        30.19R
MCCOOK         CLEAR     79  62  56 E10       30.18R
OGALLALA       PTCLDY    76  62  61 E8        30.22R
$$

NEZ005>010-023>029-035>040-094-230400-
NORTH CENTRAL NEBRASKA

CITY           SKY/WX    TMP DP  RH WIND       PRES   REMARKS
VALENTINE      CLEAR     75  63  66 NE7       30.25R
AINSWORTH      CLEAR     69  65  85 E3        30.24R
BROKEN BOW     CLEAR     73  64  73 NE8       30.22R
O`NEILL        CLEAR     72  63  74 E5        30.22R
ORD            CLEAR     72  66  81 NE5       30.19R
THEDFORD       CLEAR     74  61  63 E8        30.24S
$$

NEZ041-046>049-061>064-073>077-083>087-230400-
SOUTH CENTRAL NEBRASKA

CITY           SKY/WX    TMP DP  RH WIND       PRES   REMARKS
GRAND ISLAND   CLEAR     74  69  85 NE8       30.17R
AURORA         CLEAR     75  72  88 NE8       30.16R
HASTINGS       CLEAR     76  67  73 NE7       30.16R
HEBRON         CLEAR     81  69  67 NE7       30.12R
HOLDREGE       CLEAR     74  67  78 NE6       30.17R
KEARNEY *      CLEAR     75  66  73 NE13      30.18R
YORK           CLEAR     73  72  94 N8        30.16R
$$

NEZ011>018-030>034-042>045-230400-
NORTHEAST NEBRASKA

CITY           SKY/WX    TMP DP  RH WIND       PRES   REMARKS
NORFOLK        CLEAR     75  64  68 NE8       30.19R
ALBION         CLEAR     72  66  82 CALM      30.19R
BLAIR          CLEAR     75  59  57 N7        30.14R
COLUMBUS *     CLEAR     70  64  83 NE6       30.17S
FREMONT        CLEAR     77  68  74 N3        30.15R
TEKAMAH        CLEAR     71  66  84 N6        30.14R
WAYNE          CLEAR     69  66  89 CALM      30.19R
$$

NEZ050>053-065>068-078-088>093-230400-
SOUTHEAST NEBRASKA

CITY           SKY/WX    TMP DP  RH WIND       PRES   REMARKS
LINCOLN        CLEAR     77  68  73 NE7       30.13R
OMAHA EPPLEY   MOCLDY    76  68  76 N7        30.12R
BEATRICE       CLEAR     76  67  74 NE8       30.12R
FALLS CITY     PTCLDY    80  74  81 N6        30.07R
NEBRASKA CITY  CLEAR     77  69  77 NE10G16   30.11R
PLATTSMOUTH    CLEAR     77  68  73 N5        30.13R
$$

NEZ044-045-051>053-067-230400-
OMAHA AREA

CITY           SKY/WX    TMP DP  RH WIND       PRES   REMARKS
OMAHA EPPLEY   MOCLDY    76  68  76 N7        30.12R
BLAIR          CLEAR     75  59  57 N7        30.14R
FREMONT        CLEAR     77  68  74 N3        30.15R
MILLARD        CLEAR     80  69  70 CALM      30.12R
OFFUTT AFB     CLEAR     78  71  79 N5        30.11S
PLATTSMOUTH    CLEAR     77  68  73 N5        30.13R
WAHOO          FAIR      73  68  83 N6        30.14R
$$



USA.gov is the U.S. government's official web portal to all federal, state and local government web resources and services.